,,Stat6,,Stat2,,Stat8,,Stat9,,Stat10,,Wind1,,Wind1,
time,status,PA1M_AVG,status,PR1M_SUM,status,RH1M_AVG,status,SR1M_AVG,status,TA1M_AVG,status,W1dAve1m,status,W1sAve1m,
2008-06-26, 00:00:00,VALID,918.062,VALID,0,VALID,100,VALID,-0.0509425,VALID,19.9202,VALID,112,VALID,0.870028,
2008-06-26, 00:01:00,VALID,918.055,VALID,0,VALID,100,VALID,-0.0849042,VALID,19.9199,VALID,116,VALID,0.779433,
2008-06-26, 00:02:00,VALID,918.067,VALID,0,VALID,100,VALID,-0.0339617,VALID,19.9199,VALID,86,VALID,0.787946,
2008-06-26, 00:03:00,VALID,918.053,VALID,0,VALID,100,VALID,-0.0509425,VALID,19.9197,VALID,121,VALID,1.00381,
2008-06-26, 00:04:00,VALID,918.051,VALID,0,VALID,100,VALID,-0.0509425,VALID,19.9135,VALID,113,VALID,1.129,
2008-06-26, 00:05:00,VALID,918.055,VALID,0,VALID,100,VALID,-0.0679233,VALID,19.9102,VALID,114,VALID,1.03277,
2008-06-26, 00:06:00,VALID,918.045,VALID,0,VALID,100,VALID,-0.0339617,VALID,19.9167,VALID,112,VALID,0.110899,
2008-06-26, 00:07:00,VALID,918.026,VALID,0,VALID,100,VALID,-0.0509425,VALID,19.917,VALID,113,VALID,0.66441,
2008-06-26, 00:08:00,VALID,918.013,VALID,0,VALID,100,VALID,-0.0679233,VALID,19.9105,VALID,122,VALID,0.101744,
2008-06-26, 00:09:00,VALID,918.001,VALID,0,VALID,100,VALID,0,VALID,19.901,VALID,113,VALID,0.287574,
2008-06-26, 00:10:00,VALID,917.993,VALID,0,VALID,100,VALID,-0.0509425,VALID,19.901,VALID,122,VALID,0,
2008-06-26, 00:11:00,VALID,917.978,VALID,0,VALID,100,VALID,-0.0169808,VALID,19.904,VALID,108,VALID,0,
2008-06-26, 00:12:00,VALID,917.972,VALID,0,VALID,100,VALID,-0.0339617,VALID,19.904,VALID,128,VALID,0,
2008-06-26, 00:13:00,VALID,917.965,VALID,0,VALID,100,VALID,-0.0169808,VALID,19.907,VALID,132,VALID,0,
2008-06-26, 00:14:00,VALID,917.946,VALID,0,VALID,100,VALID,-0.0339617,VALID,19.9234,VALID,130,VALID,0,
2008-06-26, 00:15:00,VALID,917.943,VALID,0,VALID,100,VALID,0,VALID,19.9334,VALID,114,VALID,0,
2008-06-26, 00:16:00,VALID,917.945,VALID,0,VALID,100,VALID,-0.0169808,VALID,19.9329,VALID,123,VALID,0,
2008-06-26, 00:17:00,VALID,917.937,VALID,0,VALID,100,VALID,0,VALID,19.9269,VALID,134,VALID,0,
2008-06-26, 00:18:00,VALID,917.922,VALID,0,VALID,100,VALID,-0.0169808,VALID,19.9199,VALID,118,VALID,0,
2008-06-26, 00:19:00,VALID,917.903,VALID,0,VALID,100,VALID,-0.0169808,VALID,19.9167,VALID,115,VALID,0,
2008-06-26, 00:20:00,VALID,917.891,VALID,0,VALID,100,VALID,-0.0169808,VALID,19.9105,VALID,127,VALID,0.584077,
2008-06-26, 00:21:00,VALID,917.857,VALID,0,VALID,100,VALID,-0.0169808,VALID,19.8972,VALID,126,VALID,0.431868,
2008-06-26, 00:22:00,VALID,917.853,VALID,0,VALID,100,VALID,0,VALID,19.8977,VALID,140,VALID,1.04516,
2008-06-26, 00:23:00,VALID,917.816,VALID,0,VALID,100,VALID,-0.0509425,VALID,19.8815,VALID,141,VALID,1.06232,
2008-06-26, 00:24:00,VALID,917.805,VALID,0,VALID,100,VALID,-0.0169808,VALID,19.872,VALID,153,VALID,1.24343,
2008-06-26, 00:25:00,VALID,917.787,VALID,0,VALID,100,VALID,-0.0509425,VALID,19.8655,VALID,151,VALID,0.235973,
2008-06-26, 00:26:00,VALID,917.796,VALID,0,VALID,100,VALID,-0.0339617,VALID,19.8523,VALID,126,VALID,0,
2008-06-26, 00:27:00,VALID,917.771,VALID,0,VALID,100,VALID,-0.0509425,VALID,19.8488,VALID,127,VALID,0.00109012,
2008-06-26, 00:28:00,VALID,917.758,VALID,0,VALID,100,VALID,-0.0679233,VALID,19.8456,VALID,136,VALID,0,
2008-06-26, 00:29:00,VALID,917.738,VALID,0,VALID,100,VALID,-0.0169808,VALID,19.8361,VALID,142,VALID,0,
2008-06-26, 00:30:00,VALID,917.71,VALID,0,VALID,100,VALID,-0.0339617,VALID,19.8361,VALID,146,VALID,0,
2008-06-26, 00:31:00,VALID,917.686,VALID,0,VALID,100,VALID,-0.0509425,VALID,19.8201,VALID,142,VALID,0,
2008-06-26, 00:32:00,VALID,917.669,VALID,0,VALID,100,VALID,-0.0509425,VALID,19.8234,VALID,166,VALID,0,
2008-06-26, 00:33:00,VALID,917.652,VALID,0,VALID,100,VALID,-0.0339617,VALID,19.8229,VALID,148,VALID,0,
2008-06-26, 00:34:00,VALID,917.626,VALID,0,VALID,100,VALID,-0.0169808,VALID,19.8234,VALID,140,VALID,0,
2008-06-26, 00:35:00,VALID,917.618,VALID,0,VALID,100,VALID,0,VALID,19.8101,VALID,136,VALID,0,
2008-06-26, 00:36:00,VALID,917.592,VALID,0,VALID,100,VALID,-0.0169808,VALID,19.8004,VALID,131,VALID,0.751272,
2008-06-26, 00:37:00,VALID,917.59,VALID,0,VALID,100,VALID,-0.0339617,VALID,19.7909,VALID,110,VALID,0.318537,
2008-06-26, 00:38:00,VALID,917.587,VALID,0,VALID,100,VALID,0,VALID,19.7869,VALID,111,VALID,0,
2008-06-26, 00:39:00,VALID,917.58,VALID,0,VALID,100,VALID,-0.0679233,VALID,19.7976,VALID,131,VALID,0.000363372,
2008-06-26, 00:40:00,VALID,917.593,VALID,0,VALID,100,VALID,-0.0849042,VALID,19.7976,VALID,133,VALID,0.000887784,
2008-06-26, 00:41:00,VALID,917.595,VALID,0,VALID,100,VALID,-0.0679233,VALID,19.7877,VALID,139,VALID,0.00109012,
2008-06-26, 00:42:00,VALID,917.604,VALID,0,VALID,100,VALID,-0.0339617,VALID,19.7904,VALID,141,VALID,0,
2008-06-26, 00:43:00,VALID,917.609,VALID,0,VALID,100,VALID,-0.0339617,VALID,19.8071,VALID,127,VALID,0.23473,
2008-06-26, 00:44:00,VALID,917.617,VALID,0,VALID,100,VALID,-0.0509425,VALID,19.8044,VALID,109,VALID,0,
2008-06-26, 00:45:00,VALID,917.607,VALID,0,VALID,100,VALID,-0.0509425,VALID,19.8074,VALID,101,VALID,0,
2008-06-26, 00:46:00,VALID,917.612,VALID,0,VALID,100,VALID,-0.0509425,VALID,19.8039,VALID,105,VALID,0,
2008-06-26, 00:47:00,VALID,917.612,VALID,0,VALID,100,VALID,-0.0679233,VALID,19.8069,VALID,146,VALID,0.732617,
2008-06-26, 00:48:00,VALID,917.608,VALID,0,VALID,100,VALID,-0.0169808,VALID,19.7976,VALID,159,VALID,0.770894,
2008-06-26, 00:49:00,VALID,917.603,VALID,0,VALID,100,VALID,-0.0169808,VALID,19.7839,VALID,145,VALID,0.638263,
2008-06-26, 00:50:00,VALID,917.611,VALID,0,VALID,100,VALID,-0.0849042,VALID,19.7907,VALID,130,VALID,0.00520833,
2008-06-26, 00:51:00,VALID,917.603,VALID,0,VALID,100,VALID,-0.0339617,VALID,19.7971,VALID,131,VALID,0,
2008-06-26, 00:52:00,VALID,917.61,VALID,0,VALID,100,VALID,-0.0849042,VALID,19.8134,VALID,131,VALID,0,
2008-06-26, 00:53:00,VALID,917.587,VALID,0,VALID,100,VALID,-0.0339617,VALID,19.8266,VALID,129,VALID,0,
2008-06-26, 00:54:00,VALID,917.585,VALID,0,VALID,100,VALID,-0.0339617,VALID,19.8331,VALID,147,VALID,0,
2008-06-26, 00:55:00,VALID,917.576,VALID,0,VALID,100,VALID,-0.0509425,VALID,19.8653,VALID,148,VALID,0,
2008-06-26, 00:56:00,VALID,917.577,VALID,0,VALID,100,VALID,-0.101885,VALID,19.8685,VALID,148,VALID,0,
2008-06-26, 00:57:00,VALID,917.582,VALID,0,VALID,100,VALID,-0.0509425,VALID,19.879,VALID,148,VALID,0,
2008-06-26, 00:58:00,VALID,917.587,VALID,0,VALID,100,VALID,-0.0679233,VALID,19.875,VALID,148,VALID,0,
2008-06-26, 00:59:00,VALID,917.593,VALID,0,VALID,100,VALID,-0.0509425,VALID,19.8785,VALID,152,VALID,0,
2008-06-26, 01:00:00,VALID,917.6,VALID,0,VALID,100,VALID,-0.101885,VALID,19.8783,VALID,154,VALID,0,
2008-06-26, 01:01:00,VALID,917.606,VALID,0,VALID,100,VALID,-0.0339617,VALID,19.8655,VALID,130,VALID,0.323552,
2008-06-26, 01:02:00,VALID,917.606,VALID,0,VALID,100,VALID,-0.0849042,VALID,19.8655,VALID,128,VALID,0.902158,
2008-06-26, 01:03:00,VALID,917.615,VALID,0,VALID,100,VALID,-0.101885,VALID,19.8558,VALID,144,VALID,0.442406,
2008-06-26, 01:04:00,VALID,917.614,VALID,0,VALID,100,VALID,-0.0169808,VALID,19.8461,VALID,137,VALID,0.030692,
2008-06-26, 01:05:00,VALID,917.609,VALID,0,VALID,100,VALID,-0.0339617,VALID,19.8491,VALID,153,VALID,0,
2008-06-26, 01:06:00,VALID,917.586,VALID,0,VALID,100,VALID,-0.0679233,VALID,19.8528,VALID,165,VALID,0,
2008-06-26, 01:07:00,VALID,917.587,VALID,0,VALID,100,VALID,-0.0679233,VALID,19.8561,VALID,164,VALID,0,
2008-06-26, 01:08:00,VALID,917.578,VALID,0,VALID,100,VALID,-0.0509425,VALID,19.8653,VALID,184,VALID,0,
2008-06-26, 01:09:00,VALID,917.575,VALID,0,VALID,100,VALID,-0.0169808,VALID,19.8877,VALID,191,VALID,0,
2008-06-26, 01:10:00,VALID,917.571,VALID,0,VALID,100,VALID,-0.0509425,VALID,19.8845,VALID,171,VALID,0.615057,
2008-06-26, 01:11:00,VALID,917.583,VALID,0,VALID,100,VALID,0,VALID,19.8715,VALID,176,VALID,0.913662,
2008-06-26, 01:12:00,VALID,917.569,VALID,0,VALID,100,VALID,-0.0509425,VALID,19.869,VALID,157,VALID,1.06504,
2008-06-26, 01:13:00,VALID,917.563,VALID,0,VALID,100,VALID,-0.0339617,VALID,19.8523,VALID,178,VALID,0.891016,
2008-06-26, 01:14:00,VALID,917.561,VALID,0,VALID,100,VALID,-0.0339617,VALID,19.8488,VALID,178,VALID,0.959666,
2008-06-26, 01:15:00,VALID,917.569,VALID,0,VALID,100,VALID,-0.0679233,VALID,19.8461,VALID,162,VALID,0.734766,
2008-06-26, 01:16:00,VALID,917.564,VALID,0,VALID,100,VALID,-0.0169808,VALID,19.8458,VALID,169,VALID,0.945126,
2008-06-26, 01:17:00,VALID,917.567,VALID,0,VALID,100,VALID,-0.0509425,VALID,19.8261,VALID,145,VALID,1.21075,
2008-06-26, 01:18:00,VALID,917.582,VALID,0,VALID,100,VALID,-0.0169808,VALID,19.8066,VALID,161,VALID,0.619792,
2008-06-26, 01:19:00,VALID,917.591,VALID,0,VALID,100,VALID,-0.0169808,VALID,19.8039,VALID,145,VALID,0.672852,
2008-06-26, 01:20:00,VALID,917.582,VALID,0,VALID,100,VALID,0,VALID,19.7804,VALID,150,VALID,1.1808,
2008-06-26, 01:21:00,VALID,917.598,VALID,0,VALID,100,VALID,0,VALID,19.7482,VALID,148,VALID,0.765092,
2008-06-26, 01:22:00,VALID,917.573,VALID,0,VALID,100,VALID,-0.0169808,VALID,19.7185,VALID,153,VALID,0.757068,
2008-06-26, 01:23:00,VALID,917.578,VALID,0,VALID,100,VALID,-0.0339617,VALID,19.7028,VALID,148,VALID,0.0251524,
2008-06-26, 01:24:00,VALID,917.554,VALID,0,VALID,100,VALID,-0.0169808,VALID,19.6604,VALID,139,VALID,0.113459,
2008-06-26, 01:25:00,VALID,917.536,VALID,0,VALID,100,VALID,0,VALID,19.6312,VALID,147,VALID,0.00319602,
2008-06-26, 01:26:00,VALID,917.525,VALID,0,VALID,100,VALID,-0.0339617,VALID,19.6219,VALID,140,VALID,0.00104167,
2008-06-26, 01:27:00,VALID,917.518,VALID,0,VALID,100,VALID,-0.0339617,VALID,19.6025,VALID,143,VALID,0.0187137,
2008-06-26, 01:28:00,VALID,917.504,VALID,0,VALID,100,VALID,0,VALID,19.5695,VALID,158,VALID,0.555831,
2008-06-26, 01:29:00,VALID,917.496,VALID,0,VALID,100,VALID,-0.0509425,VALID,19.5278,VALID,148,VALID,0.791466,
2008-06-26, 01:30:00,VALID,917.505,VALID,0,VALID,100,VALID,-0.0509425,VALID,19.5218,VALID,162,VALID,0.766959,
2008-06-26, 01:31:00,VALID,917.501,VALID,0,VALID,100,VALID,-0.0339617,VALID,19.5121,VALID,164,VALID,1.07326,
2008-06-26, 01:32:00,VALID,917.514,VALID,0,VALID,100,VALID,-0.0339617,VALID,19.4789,VALID,156,VALID,0.444922,
2008-06-26, 01:33:00,VALID,917.532,VALID,0,VALID,100,VALID,-0.0679233,VALID,19.4627,VALID,146,VALID,1.04743,
2008-06-26, 01:34:00,VALID,917.55,VALID,0,VALID,100,VALID,-0.0169808,VALID,19.4632,VALID,152,VALID,0.966654,
2008-06-26, 01:35:00,VALID,917.564,VALID,0,VALID,100,VALID,-0.0849042,VALID,19.4662,VALID,132,VALID,0.451451,
2008-06-26, 01:36:00,VALID,917.569,VALID,0,VALID,100,VALID,-0.0339617,VALID,19.4634,VALID,144,VALID,0.981136,
2008-06-26, 01:37:00,VALID,917.575,VALID,0,VALID,100,VALID,-0.0339617,VALID,19.4565,VALID,126,VALID,1.32106,
2008-06-26, 01:38:00,VALID,917.588,VALID,0,VALID,100,VALID,-0.0509425,VALID,19.43,VALID,143,VALID,0.76944,
2008-06-26, 01:39:00,VALID,917.591,VALID,0,VALID,100,VALID,-0.0339617,VALID,19.4238,VALID,138,VALID,1.06632,
2008-06-26, 01:40:00,VALID,917.578,VALID,0,VALID,100,VALID,-0.0339617,VALID,19.3978,VALID,118,VALID,1.02511,
2008-06-26, 01:41:00,VALID,917.596,VALID,0,VALID,100,VALID,-0.0339617,VALID,19.3853,VALID,119,VALID,1.01563,
2008-06-26, 01:42:00,VALID,917.594,VALID,0,VALID,100,VALID,-0.0509425,VALID,19.3561,VALID,121,VALID,0.918968,
2008-06-26, 01:43:00,VALID,917.591,VALID,0,VALID,100,VALID,-0.0509425,VALID,19.3364,VALID,136,VALID,0.862305,
2008-06-26, 01:44:00,VALID,917.589,VALID,0,VALID,100,VALID,-0.0679233,VALID,19.3329,VALID,134,VALID,0.960175,
2008-06-26, 01:45:00,VALID,917.604,VALID,0,VALID,100,VALID,-0.0339617,VALID,19.3294,VALID,128,VALID,1.06198,
2008-06-26, 01:46:00,VALID,917.603,VALID,0,VALID,100,VALID,-0.0679233,VALID,19.3302,VALID,127,VALID,0.787566,
2008-06-26, 01:47:00,VALID,917.607,VALID,0,VALID,100,VALID,-0.0849042,VALID,19.317,VALID,117,VALID,0.889172,
2008-06-26, 01:48:00,VALID,917.611,VALID,0,VALID,100,VALID,-0.0169808,VALID,19.3267,VALID,132,VALID,0.764172,
2008-06-26, 01:49:00,VALID,917.604,VALID,0,VALID,100,VALID,-0.0339617,VALID,19.3334,VALID,130,VALID,0.621003,
2008-06-26, 01:50:00,VALID,917.604,VALID,0,VALID,100,VALID,-0.0679233,VALID,19.3294,VALID,124,VALID,0.844322,
2008-06-26, 01:51:00,VALID,917.611,VALID,0,VALID,100,VALID,-0.0339617,VALID,19.3297,VALID,113,VALID,0.238281,
2008-06-26, 01:52:00,VALID,917.613,VALID,0,VALID,100,VALID,0.0849042,VALID,19.3182,VALID,114,VALID,0.31622,
2008-06-26, 01:53:00,VALID,917.621,VALID,0,VALID,100,VALID,0.0339617,VALID,19.332,VALID,137,VALID,0.117369,
2008-06-26, 01:54:00,VALID,917.628,VALID,0,VALID,100,VALID,-0.0849042,VALID,19.3297,VALID,159,VALID,0,
2008-06-26, 01:55:00,VALID,917.639,VALID,0,VALID,100,VALID,-0.0169808,VALID,19.3334,VALID,153,VALID,0,
2008-06-26, 01:56:00,VALID,917.643,VALID,0,VALID,100,VALID,-0.0679233,VALID,19.3464,VALID,155,VALID,0,
2008-06-26, 01:57:00,VALID,917.652,VALID,0,VALID,100,VALID,-0.0679233,VALID,19.3394,VALID,165,VALID,0.560547,
2008-06-26, 01:58:00,VALID,917.661,VALID,0,VALID,100,VALID,-0.0509425,VALID,19.3364,VALID,165,VALID,0.724414,
2008-06-26, 01:59:00,VALID,917.67,VALID,0,VALID,100,VALID,-0.0339617,VALID,19.3329,VALID,166,VALID,0.403942,
2008-06-26, 02:00:00,VALID,917.673,VALID,0,VALID,100,VALID,-0.0679233,VALID,19.3332,VALID,168,VALID,0.00111607,
2008-06-26, 02:01:00,VALID,917.68,VALID,0,VALID,100,VALID,-0.0339617,VALID,19.3332,VALID,166,VALID,0.000173611,
2008-06-26, 02:02:00,VALID,917.664,VALID,0,VALID,100,VALID,-0.0169808,VALID,19.3262,VALID,164,VALID,0,
2008-06-26, 02:03:00,VALID,917.657,VALID,0,VALID,100,VALID,-0.0679233,VALID,19.3262,VALID,139,VALID,0,
2008-06-26, 02:04:00,VALID,917.643,VALID,0,VALID,100,VALID,-0.0509425,VALID,19.3197,VALID,137,VALID,0,
2008-06-26, 02:05:00,VALID,917.646,VALID,0,VALID,100,VALID,-0.0849042,VALID,19.3075,VALID,133,VALID,0,
2008-06-26, 02:06:00,VALID,917.655,VALID,0,VALID,100,VALID,-0.0679233,VALID,19.3012,VALID,131,VALID,0,
2008-06-26, 02:07:00,VALID,917.674,VALID,0,VALID,100,VALID,-0.0849042,VALID,19.2878,VALID,128,VALID,0,
2008-06-26, 02:08:00,VALID,917.679,VALID,0,VALID,100,VALID,-0.0169808,VALID,19.2908,VALID,134,VALID,0.803199,
2008-06-26, 02:09:00,VALID,917.693,VALID,0,VALID,100,VALID,0,VALID,19.3028,VALID,135,VALID,0.859003,
2008-06-26, 02:10:00,VALID,917.705,VALID,0,VALID,100,VALID,0.0509425,VALID,19.306,VALID,137,VALID,0.446584,
2008-06-26, 02:11:00,VALID,917.698,VALID,0,VALID,100,VALID,0.0339617,VALID,19.2955,VALID,122,VALID,0.604167,
2008-06-26, 02:12:01,VALID,917.682,VALID,0,VALID,100,VALID,0.0679233,VALID,19.2793,VALID,126,VALID,1.08352,
2008-06-26, 02:13:01,VALID,917.664,VALID,0,VALID,100,VALID,0.0679233,VALID,19.2501,VALID,132,VALID,0.9893,
2008-06-26, 02:14:00,VALID,917.645,VALID,0,VALID,100,VALID,0.0339617,VALID,19.2371,VALID,131,VALID,1.18405,
2008-06-26, 02:15:00,VALID,917.618,VALID,0,VALID,100,VALID,0.0509425,VALID,19.2374,VALID,132,VALID,0.963844,
2008-06-26, 02:16:00,VALID,917.589,VALID,0,VALID,100,VALID,0.0509425,VALID,19.2179,VALID,140,VALID,0.78497,
2008-06-26, 02:17:00,VALID,917.588,VALID,0,VALID,100,VALID,0.0339617,VALID,19.2281,VALID,142,VALID,0.0115234,
2008-06-26, 02:18:01,VALID,917.567,VALID,0,VALID,100,VALID,0.0169808,VALID,19.2114,VALID,147,VALID,0,
2008-06-26, 02:19:01,VALID,917.549,VALID,0,VALID,100,VALID,0.0339617,VALID,19.192,VALID,147,VALID,0,
2008-06-26, 02:20:01,VALID,917.54,VALID,0,VALID,100,VALID,0.0339617,VALID,19.1922,VALID,149,VALID,0,
2008-06-26, 02:21:00,VALID,917.535,VALID,0,VALID,100,VALID,0.0339617,VALID,19.202,VALID,156,VALID,0,
2008-06-26, 02:22:00,VALID,917.516,VALID,0,VALID,100,VALID,0.0169808,VALID,19.2089,VALID,144,VALID,0,
2008-06-26, 02:23:00,VALID,917.489,VALID,0,VALID,100,VALID,0,VALID,19.1857,VALID,135,VALID,0,
2008-06-26, 02:24:00,VALID,917.461,VALID,0,VALID,100,VALID,0.0339617,VALID,19.166,VALID,135,VALID,0,
2008-06-26, 02:25:01,VALID,917.438,VALID,0,VALID,100,VALID,0,VALID,19.1663,VALID,135,VALID,0,
2008-06-26, 02:26:01,VALID,917.409,VALID,0,VALID,100,VALID,0.0169808,VALID,19.1635,VALID,137,VALID,0,
2008-06-26, 02:27:00,VALID,917.376,VALID,0,VALID,100,VALID,0.0169808,VALID,19.1269,VALID,136,VALID,0,
2008-06-26, 02:28:01,VALID,917.348,VALID,0,VALID,100,VALID,0.0679233,VALID,19.1144,VALID,140,VALID,0,
2008-06-26, 02:29:01,VALID,917.344,VALID,0,VALID,100,VALID,0.0339617,VALID,19.0847,VALID,142,VALID,0,
2008-06-26, 02:30:01,VALID,917.325,VALID,0,VALID,100,VALID,0.0339617,VALID,19.0752,VALID,141,VALID,0,
2008-06-26, 02:31:00,VALID,917.322,VALID,0,VALID,100,VALID,0.0849042,VALID,19.0622,VALID,120,VALID,0.490282,
2008-06-26, 02:32:00,VALID,917.313,VALID,0,VALID,100,VALID,0.101885,VALID,19.0395,VALID,117,VALID,0.638148,
2008-06-26, 02:33:00,VALID,917.32,VALID,0,VALID,100,VALID,0.0339617,VALID,19.0004,VALID,110,VALID,0.994965,
2008-06-26, 02:34:00,VALID,917.301,VALID,0,VALID,100,VALID,0.0679233,VALID,18.9746,VALID,139,VALID,1.00712,
2008-06-26, 02:35:01,VALID,917.283,VALID,0,VALID,100,VALID,0,VALID,18.9814,VALID,147,VALID,1.27447,
2008-06-26, 02:36:00,VALID,917.272,VALID,0,VALID,100,VALID,0.0509425,VALID,18.9941,VALID,140,VALID,1.39236,
2008-06-26, 02:37:00,VALID,917.245,VALID,0,VALID,100,VALID,0.0509425,VALID,19.0006,VALID,134,VALID,1.36914,
2008-06-26, 02:38:01,VALID,917.231,VALID,0,VALID,100,VALID,0.0339617,VALID,18.9844,VALID,140,VALID,1.20916,
2008-06-26, 02:39:00,VALID,917.205,VALID,0,VALID,100,VALID,-0.0509425,VALID,18.9758,VALID,137,VALID,1.35078,
2008-06-26, 02:40:00,VALID,917.18,VALID,0,VALID,100,VALID,-0.0679233,VALID,18.9928,VALID,137,VALID,1.13542,
2008-06-26, 02:41:00,VALID,917.147,VALID,0,VALID,100,VALID,-0.0849042,VALID,18.9925,VALID,135,VALID,1.04688,
2008-06-26, 02:42:01,VALID,917.118,VALID,0,VALID,100,VALID,-0.0679233,VALID,19.0018,VALID,140,VALID,1.24629,
2008-06-26, 02:43:00,VALID,917.091,VALID,0,VALID,100,VALID,-0.0339617,VALID,19.0412,VALID,133,VALID,0.981424,
2008-06-26, 02:44:00,VALID,917.067,VALID,0,VALID,100,VALID,-0.0849042,VALID,19.0507,VALID,130,VALID,1.13381,
2008-06-26, 02:45:01,VALID,917.039,VALID,0,VALID,100,VALID,-0.0509425,VALID,19.0864,VALID,134,VALID,1.18769,
2008-06-26, 02:46:00,VALID,917.012,VALID,0,VALID,100,VALID,-0.0509425,VALID,19.1021,VALID,138,VALID,0.94455,
2008-06-26, 02:47:00,VALID,916.988,VALID,0,VALID,100,VALID,0,VALID,19.1151,VALID,135,VALID,0.882631,
2008-06-26, 02:48:01,VALID,916.968,VALID,0,VALID,100,VALID,-0.0169808,VALID,19.1283,VALID,130,VALID,0.917259,
2008-06-26, 02:49:01,VALID,916.958,VALID,0,VALID,100,VALID,-0.0169808,VALID,19.1313,VALID,124,VALID,0.905678,
2008-06-26, 02:50:01,VALID,916.952,VALID,0,VALID,100,VALID,-0.0169808,VALID,19.1313,VALID,124,VALID,0.460175,
2008-06-26, 02:51:01,VALID,916.935,VALID,0,VALID,100,VALID,-0.0339617,VALID,19.1313,VALID,124,VALID,0,
2008-06-26, 02:52:01,VALID,916.932,VALID,0,VALID,100,VALID,-0.0509425,VALID,19.148,VALID,143,VALID,0.495821,
2008-06-26, 02:53:01,VALID,916.921,VALID,0,VALID,100,VALID,-0.0679233,VALID,19.1737,VALID,157,VALID,0.876143,
2008-06-26, 02:54:01,VALID,916.909,VALID,0,VALID,100,VALID,0,VALID,19.2124,VALID,171,VALID,0.937855,
2008-06-26, 02:55:01,VALID,916.892,VALID,0,VALID,100,VALID,0.0169808,VALID,19.2384,VALID,159,VALID,0.850038,
2008-06-26, 02:56:01,VALID,916.878,VALID,0,VALID,100,VALID,-0.0169808,VALID,19.2578,VALID,175,VALID,1.02096,
2008-06-26, 02:57:01,VALID,916.861,VALID,0,VALID,100,VALID,0,VALID,19.271,VALID,148,VALID,0.55,
2008-06-26, 02:58:01,VALID,916.836,VALID,0,VALID,100,VALID,0,VALID,19.2676,VALID,152,VALID,0.592949,
2008-06-26, 02:59:01,VALID,916.823,VALID,0,VALID,100,VALID,0,VALID,19.2708,VALID,181,VALID,1.35621,
2008-06-26, 03:00:01,VALID,916.799,VALID,0,VALID,100,VALID,-0.0339617,VALID,19.2808,VALID,166,VALID,1.5202,
2008-06-26, 03:01:01,VALID,916.784,VALID,0,VALID,100,VALID,0,VALID,19.2603,VALID,178,VALID,1.50223,
2008-06-26, 03:02:01,VALID,916.783,VALID,0,VALID,100,VALID,0,VALID,19.2703,VALID,166,VALID,1.27191,
2008-06-26, 03:03:01,VALID,916.764,VALID,0,VALID,100,VALID,-0.0339617,VALID,19.2676,VALID,165,VALID,1.1486,
2008-06-26, 03:04:00,VALID,916.758,VALID,0,VALID,100,VALID,-0.0169808,VALID,19.2643,VALID,175,VALID,1.18914,
2008-06-26, 03:05:00,VALID,916.734,VALID,0,VALID,100,VALID,-0.0169808,VALID,19.2583,VALID,184,VALID,1.14974,
2008-06-26, 03:06:00,VALID,916.727,VALID,0,VALID,100,VALID,-0.0169808,VALID,19.2451,VALID,186,VALID,0.99929,
2008-06-26, 03:07:00,VALID,916.701,VALID,0,VALID,100,VALID,0.0169808,VALID,19.2351,VALID,181,VALID,0.906631,
2008-06-26, 03:08:00,VALID,916.692,VALID,0,VALID,100,VALID,-0.0169808,VALID,19.2196,VALID,183,VALID,0.803571,
2008-06-26, 03:09:00,VALID,916.673,VALID,0,VALID,100,VALID,-0.0849042,VALID,19.2041,VALID,158,VALID,0.709635,
2008-06-26, 03:10:00,VALID,916.684,VALID,0,VALID,100,VALID,-0.0849042,VALID,19.1909,VALID,166,VALID,0.848704,
2008-06-26, 03:11:00,VALID,916.703,VALID,0,VALID,100,VALID,-0.101885,VALID,19.1817,VALID,113,VALID,1.07672,
2008-06-26, 03:12:00,VALID,916.687,VALID,0,VALID,100,VALID,-0.118866,VALID,19.1617,VALID,157,VALID,1.0404,
2008-06-26, 03:13:00,VALID,916.686,VALID,0,VALID,100,VALID,-0.101885,VALID,19.1555,VALID,141,VALID,0.559338,
2008-06-26, 03:14:00,VALID,916.694,VALID,0,VALID,100,VALID,-0.101885,VALID,19.1552,VALID,132,VALID,1.20296,
2008-06-26, 03:15:00,VALID,916.696,VALID,0,VALID,100,VALID,-0.118866,VALID,19.1752,VALID,143,VALID,1.01634,
2008-06-26, 03:16:00,VALID,916.69,VALID,0,VALID,100,VALID,-0.118866,VALID,19.1817,VALID,164,VALID,1.40044,
2008-06-26, 03:17:00,VALID,916.684,VALID,0,VALID,100,VALID,-0.101885,VALID,19.1817,VALID,170,VALID,0.998611,
2008-06-26, 03:18:00,VALID,916.705,VALID,0,VALID,100,VALID,-0.118866,VALID,19.1854,VALID,164,VALID,0.755664,
2008-06-26, 03:19:00,VALID,916.713,VALID,0,VALID,100,VALID,-0.101885,VALID,19.1752,VALID,167,VALID,0.890244,
2008-06-26, 03:20:00,VALID,916.709,VALID,0,VALID,100,VALID,-0.101885,VALID,19.1622,VALID,189,VALID,1.14774,
2008-06-26, 03:21:00,VALID,916.725,VALID,0,VALID,100,VALID,-0.118866,VALID,19.1787,VALID,175,VALID,1.1511,
2008-06-26, 03:22:00,VALID,916.734,VALID,0,VALID,100,VALID,-0.135847,VALID,19.1817,VALID,176,VALID,1.29609,
2008-06-26, 03:23:00,VALID,916.758,VALID,0,VALID,100,VALID,-0.0679233,VALID,19.1712,VALID,179,VALID,0.754616,
2008-06-26, 03:24:00,VALID,916.769,VALID,0,VALID,100,VALID,0,VALID,19.1742,VALID,172,VALID,0.985547,
2008-06-26, 03:25:00,VALID,916.791,VALID,0,VALID,100,VALID,0,VALID,19.1505,VALID,177,VALID,0.35766,
2008-06-26, 03:26:00,VALID,916.797,VALID,0,VALID,100,VALID,-0.0339617,VALID,19.164,VALID,176,VALID,0.65346,
2008-06-26, 03:27:00,VALID,916.817,VALID,0,VALID,100,VALID,0.0169808,VALID,19.167,VALID,161,VALID,0.910528,
2008-06-26, 03:28:00,VALID,916.821,VALID,0,VALID,100,VALID,0.0169808,VALID,19.1635,VALID,167,VALID,0.721294,
2008-06-26, 03:29:00,VALID,916.832,VALID,0,VALID,100,VALID,0,VALID,19.1478,VALID,167,VALID,0.247792,
2008-06-26, 03:30:00,VALID,916.822,VALID,0,VALID,100,VALID,0,VALID,19.1383,VALID,170,VALID,0.595796,
2008-06-26, 03:31:00,VALID,916.822,VALID,0,VALID,100,VALID,0,VALID,19.1316,VALID,176,VALID,0.582118,
2008-06-26, 03:32:00,VALID,916.821,VALID,0,VALID,100,VALID,0.0169808,VALID,19.1248,VALID,169,VALID,0.996548,
2008-06-26, 03:33:00,VALID,916.837,VALID,0,VALID,100,VALID,0.0169808,VALID,19.1183,VALID,179,VALID,0.1163,
2008-06-26, 03:34:00,VALID,916.851,VALID,0,VALID,100,VALID,0,VALID,19.1021,VALID,179,VALID,0,
2008-06-26, 03:35:00,VALID,916.862,VALID,0,VALID,100,VALID,-0.0169808,VALID,19.0887,VALID,178,VALID,0,
2008-06-26, 03:36:00,VALID,916.872,VALID,0,VALID,100,VALID,-0.0169808,VALID,19.0919,VALID,153,VALID,0,
2008-06-26, 03:37:00,VALID,916.884,VALID,0,VALID,100,VALID,0,VALID,19.0926,VALID,144,VALID,0,
2008-06-26, 03:38:00,VALID,916.892,VALID,0,VALID,100,VALID,0,VALID,19.0502,VALID,144,VALID,0,
2008-06-26, 03:39:00,VALID,916.9,VALID,0,VALID,100,VALID,0.0339617,VALID,19.0405,VALID,152,VALID,0,
2008-06-26, 03:40:00,VALID,916.894,VALID,0,VALID,100,VALID,-0.0169808,VALID,19.0208,VALID,154,VALID,0,
2008-06-26, 03:41:00,VALID,916.881,VALID,0,VALID,100,VALID,-0.0169808,VALID,19.0277,VALID,161,VALID,0,